This demonstration page uses our WeatherBlox Daily Observations layout. Learn more.

Left ArrowRight Arrow

Hourly Observations for March 24, 2016

Temp ( °F °C ) Dew Point ( °F °C ) Humidity (%) Winds ( mph kmh ) Pressure ( in mb ) Visibility ( mi km ) Precip ( " mm )
12:53 am 00:53 Cloudy with Drizzle 42 5.6 34 1.1 73 73 NW 31 50 29.66 1004 10 16 0.00 0.03
1:53 am 01:53 Cloudy 39 3.9 29 -1.7 67 67 NW 30 48 29.72 1006 10 16 0.00 0.03
2:53 am 02:53 Cloudy 38 3.3 25 -3.9 60 60 NW 24 39 29.74 1007 10 16 0.00 0.00
3:53 am 03:53 Cloudy 37 2.8 24 -4.4 59 59 NNW 30 48 29.77 1008 10 16 0.00 0.00
4:53 am 04:53 Cloudy 36 2.2 23 -5 59 59 NNW 26 43 29.80 1009 10 16 0.00 0.00
5:53 am 05:53 Cloudy 36 2.2 23 -5 59 59 NNW 25 41 29.83 1010 10 16 0.00 0.00
6:53 am 06:53 Cloudy 36 2.2 22 -5.6 57 57 NNW 29 46 29.87 1012 10 16 0.00 0.00
7:53 am 07:53 Cloudy 36 2.2 23 -5 59 59 NNW 25 41 29.91 1013 10 16 0.00 0.00
8:53 am 08:53 Mostly Cloudy 38 3.3 23 -5 55 55 NNW 24 39 29.92 1013 10 16 0.00 0.00
9:07 am 09:07 Partly Cloudy 38 3.3 22 -5.6 52 52 NNW 30 48 29.97 1015 10 16 0.00 0.00
9:53 am 09:53 Mostly Sunny 40 4.4 21 -6.1 47 47 NNW 30 48 29.95 1014 10 16 0.00 0.00
10:53 am 10:53 Mostly Sunny 43 6.1 21 -6.1 42 42 NNW 25 41 29.98 1015 10 16 0.00 0.00
11:53 am 11:53 Mostly Sunny 46 7.8 22 -5.6 38 38 NNW 20 31 29.99 1016 10 16 0.00 0.00
12:53 pm 12:53 Sunny 49 9.4 21 -6.1 33 33 NNW 22 35 29.99 1016 10 16 0.00 0.00
1:53 pm 13:53 Sunny 52 11.1 19 -7.2 27 27 N 20 31 29.98 1015 10 16 0.00 0.00
2:53 pm 14:53 Sunny 54 12.2 16 -8.9 22 22 N 16 26 29.98 1015 10 16 0.00 0.00
3:53 pm 15:53 Sunny 55 12.8 15 -9.4 20 20 NW 17 28 29.97 1015 10 16 0.00 0.00
4:53 pm 16:53 Sunny 55 12.8 17 -8.3 22 22 N 16 26 29.97 1015 10 16 0.00 0.00
5:53 pm 17:53 Sunny 55 12.8 18 -7.8 23 23 NNW 14 22 29.97 1015 10 16 0.00 0.00
6:53 pm 18:53 Sunny 53 11.7 17 -8.3 24 24 NW 15 24 29.98 1015 10 16 0.00 0.00
7:53 pm 19:53 Clear 49 9.4 17 -8.3 28 28 NNW 13 20 29.99 1016 10 16 0.00 0.00
8:53 pm 20:53 Clear 44 6.7 17 -8.3 34 34 NNW 6 9 30.00 1016 10 16 0.00 0.00
9:53 pm 21:53 Clear 45 7.2 17 -8.3 33 33 N 5 7 30.02 1017 10 16 0.00 0.00
10:53 pm 22:53 Clear 37 2.8 19 -7.2 48 48 WNW 5 7 30.03 1017 10 16 0.00 0.00
11:53 pm 23:53 Clear 34 1.1 18 -7.8 52 52 Calm 30.02 1017 10 16 0.00 0.00

Powered by AerisWeather